(°C)
(°C)
-3°
-3°
-4°
-4°
-5°
-5°
-5°
ZZO
ZZO
ZZO
ZZO
ZZO
ZZO
ZO
(km/u)
16-23
16-25
16-28
17-29
18-32
20-35
20-36
(mm)
0
0
0
0
0
0
0
(%)
8
0
0
0
0
0
0

Zonverhoging

/ -11.8°
sun-icon
UV 0
08:25
16:11
Laatste kwartier (270°)
23:40
14:08

METAR voor 55.6°N 37.27°O (UUWW)

Tijd Voorwaarden Temperatuur/
Dauwpunt
Wind Zicht Weer Wolken Luchtdruk Wijzigen Ruw
MVFR 2°C / 0°C 160º 8kt >10km - Overcast 1000ft 1007 No Significant change. Runway 24: Damp, 51-100% contamination with <1mm, friction coefficient 0.60. UUWW 270330Z 16004MPS 9999 OVC010 02/00 Q1007 R24/190060 NOSIG
MVFR 2°C / 0°C 160º 6kt 9000m - Overcast 1000ft 1007 No Significant change. Runway 24: Damp, 51-100% contamination with <1mm, friction coefficient 0.55. UUWW 270300Z 16003MPS 9000 OVC010 02/00 Q1007 R24/190055 NOSIG
IFR 2°C / 0°C 160º 6kt 9000m - Overcast 900ft 1007 No Significant change. Runway 24: Damp, 51-100% contamination with <1mm, friction coefficient 0.55. UUWW 270230Z 16003MPS 9000 OVC009 02/00 Q1007 R24/190055 NOSIG
IFR 2°C / 0°C 160º 6kt 9000m - Overcast 900ft 1007 No Significant change. Runway 24: Damp, 51-100% contamination with <1mm, friction coefficient 0.55. UUWW 270200Z 16003MPS 9000 OVC009 02/00 Q1007 R24/190055 NOSIG
IFR 2°C / 1°C 150º 6kt >10km - Overcast 700ft 1007 No Significant change. Runway 24: Damp, 51-100% contamination with <1mm, friction coefficient 0.55. UUWW 270130Z 15003MPS 9999 OVC007 02/01 Q1007 R24/190055 NOSIG
IFR 2°C / 1°C 150º 6kt 9000m - Overcast 900ft 1007 No Significant change. Runway 24: Damp, 51-100% contamination with <1mm, friction coefficient 0.55. UUWW 270100Z 15003MPS 9000 OVC009 02/01 Q1007 R24/190055 NOSIG
IFR 2°C / 1°C 150º 6kt 6000m - Overcast 600ft 1007 No Significant change. Runway 24: Damp, 51-100% contamination with <1mm, friction coefficient 0.55. UUWW 270030Z 15003MPS 6000 OVC006 02/01 Q1007 R24/190055 NOSIG
LIFR 2°C / 1°C 170º 4kt 4100m Mist Vertical Visibility of 0ft. 1008 No Significant change. Runway 24: Damp, 51-100% contamination with <1mm, friction coefficient 0.55. UUWW 270000Z 17002MPS 4100 BR OVC004 02/01 Q1008 R24/190055 NOSIG
IFR 2°C / 1°C 180º 6kt 7000m - Overcast 500ft 1008 No Significant change. Runway 24: Damp, 51-100% contamination with <1mm, friction coefficient 0.55. UUWW 262330Z 18003MPS 7000 OVC005 02/01 Q1008 R24/190055 NOSIG
IFR 2°C / 1°C 200º 8kt 9000m - Overcast 800ft 1008 No Significant change. Runway 24: Damp, 51-100% contamination with <1mm, friction coefficient 0.55. UUWW 262300Z 20004MPS 9000 OVC008 02/01 Q1008 R24/190055 NOSIG
IFR 2°C / 0°C 200º 8kt >10km - Broken Clouds 900ft
Overcast 2600ft
1008 No Significant change. Runway 24: Damp, 51-100% contamination with <1mm, friction coefficient 0.55. UUWW 262230Z 20004MPS 9999 BKN009 OVC026 02/00 Q1008 R24/190055 NOSIG
MVFR 2°C / 0°C 200º 8kt >10km - Broken Clouds 1200ft
Overcast 2600ft
1008 No Significant change. Runway 24: Damp, 51-100% contamination with <1mm, friction coefficient 0.55. UUWW 262200Z 20004MPS 9999 BKN012 OVC026 02/M00 Q1008 R24/190055 NOSIG
MVFR 2°C / 0°C 200º 8kt >10km - Few Clouds 1500ft
Overcast 2800ft
1008 No Significant change. Runway 24: Damp, 51-100% contamination with <1mm, friction coefficient 0.55. UUWW 262130Z 20004MPS 9999 FEW015 OVC028 02/M00 Q1008 R24/190055 NOSIG
MVFR 2°C / 0°C 210º 8kt 9000m - Few Clouds 1300ft
Overcast 2500ft
1007 No Significant change. Runway 24: Damp, 51-100% contamination with <1mm, friction coefficient 0.55. UUWW 262100Z 21004MPS 9000 FEW013 OVC025 02/00 Q1007 R24/190055 NOSIG
MVFR 2°C / 0°C 200º 10kt 9000m - Broken Clouds 1300ft
Overcast 2500ft
1007 No Significant change. Runway 24: Damp, 51-100% contamination with <1mm, friction coefficient 0.55. UUWW 262030Z 20005MPS 9000 BKN013 OVC025 02/M00 Q1007 R24/190055 NOSIG
MVFR 2°C / 0°C 200º 10kt 9000m - Broken Clouds 1300ft
Overcast 2600ft
1007 No Significant change. Runway 24: Damp, 51-100% contamination with <1mm, friction coefficient 0.55. UUWW 262000Z 20005MPS 9000 BKN013 OVC026 02/M00 Q1007 R24/190055 NOSIG
MVFR 2°C / 0°C 200º 10kt >10km - Broken Clouds 1300ft
Overcast 3000ft
1007 No Significant change. Runway 24: Damp, 51-100% contamination with <1mm, friction coefficient 0.55. UUWW 261930Z 20005MPS 9999 BKN013 OVC030 02/M00 Q1007 R24/190055 NOSIG
MVFR 2°C / 0°C 210º 12kt >10km - Broken Clouds 1400ft
Overcast 3800ft
1007 No Significant change. Runway 24: Damp, 51-100% contamination with <1mm, friction coefficient 0.55. UUWW 261900Z 21006MPS 9999 BKN014 OVC038 02/M00 Q1007 R24/190055 NOSIG
MVFR 2°C / 0°C 210º 12kt Gust 21kt >10km - Broken Clouds 1400ft
Overcast 3600ft
1006 No Significant change. Runway 24: Damp, 51-100% contamination with <1mm, friction coefficient 0.55. UUWW 261830Z 21006G11MPS 9999 BKN014 OVC036 02/M00 Q1006 R24/190055 NOSIG
MVFR 2°C / -1°C 210º 12kt >10km - Overcast 1300ft 1006 No Significant change. Runway 24: Damp, 51-100% contamination with <1mm, friction coefficient 0.55. UUWW 261800Z 21006MPS 9999 OVC013 02/M01 Q1006 R24/190055 NOSIG
MVFR 2°C / 0°C 210º 12kt >10km - Overcast 1400ft 1006 No Significant change. Runway 24: Damp, 51-100% contamination with <1mm, friction coefficient 0.55. UUWW 261730Z 21006MPS 9999 OVC014 02/M00 Q1006 R24/190055 NOSIG
MVFR 2°C / -1°C 210º 12kt >10km - Overcast 1500ft 1006 No Significant change. Runway 24: Damp, 51-100% contamination with <1mm, friction coefficient 0.55. UUWW 261700Z 21006MPS 9999 OVC015 02/M01 Q1006 R24/190055 NOSIG
MVFR 2°C / -1°C 200º 12kt >10km - Overcast 1500ft 1006 No Significant change. Runway 24: Damp, 51-100% contamination with <1mm, friction coefficient 0.55. UUWW 261630Z 20006MPS 9999 OVC015 02/M01 Q1006 R24/190055 NOSIG
MVFR 2°C / -1°C 200º 12kt >10km - Overcast 1500ft 1006 No Significant change. Runway 24: Damp, 51-100% contamination with <1mm, friction coefficient 0.55. UUWW 261600Z 20006MPS 9999 OVC015 02/M01 Q1006 R24/190055 NOSIG

MVFR

2°C / 0°C

[Meer]
Wind 160º 8kt
Zicht >10km
Weer -
Wolken Overcast 1000ft
Luchtdruk 1007
Wijzigen No Significant change. Runway 24: Damp, 51-100% contamination with <1mm, friction coefficient 0.60.
Ruw UUWW 270330Z 16004MPS 9999 OVC010 02/00 Q1007 R24/190060 NOSIG

MVFR

2°C / 0°C

[Meer]
Wind 160º 6kt
Zicht 9000m
Weer -
Wolken Overcast 1000ft
Luchtdruk 1007
Wijzigen No Significant change. Runway 24: Damp, 51-100% contamination with <1mm, friction coefficient 0.55.
Ruw UUWW 270300Z 16003MPS 9000 OVC010 02/00 Q1007 R24/190055 NOSIG

IFR

2°C / 0°C

[Meer]
Wind 160º 6kt
Zicht 9000m
Weer -
Wolken Overcast 900ft
Luchtdruk 1007
Wijzigen No Significant change. Runway 24: Damp, 51-100% contamination with <1mm, friction coefficient 0.55.
Ruw UUWW 270230Z 16003MPS 9000 OVC009 02/00 Q1007 R24/190055 NOSIG

IFR

2°C / 0°C

[Meer]
Wind 160º 6kt
Zicht 9000m
Weer -
Wolken Overcast 900ft
Luchtdruk 1007
Wijzigen No Significant change. Runway 24: Damp, 51-100% contamination with <1mm, friction coefficient 0.55.
Ruw UUWW 270200Z 16003MPS 9000 OVC009 02/00 Q1007 R24/190055 NOSIG

IFR

2°C / 1°C

[Meer]
Wind 150º 6kt
Zicht >10km
Weer -
Wolken Overcast 700ft
Luchtdruk 1007
Wijzigen No Significant change. Runway 24: Damp, 51-100% contamination with <1mm, friction coefficient 0.55.
Ruw UUWW 270130Z 15003MPS 9999 OVC007 02/01 Q1007 R24/190055 NOSIG

IFR

2°C / 1°C

[Meer]
Wind 150º 6kt
Zicht 9000m
Weer -
Wolken Overcast 900ft
Luchtdruk 1007
Wijzigen No Significant change. Runway 24: Damp, 51-100% contamination with <1mm, friction coefficient 0.55.
Ruw UUWW 270100Z 15003MPS 9000 OVC009 02/01 Q1007 R24/190055 NOSIG

IFR

2°C / 1°C

[Meer]
Wind 150º 6kt
Zicht 6000m
Weer -
Wolken Overcast 600ft
Luchtdruk 1007
Wijzigen No Significant change. Runway 24: Damp, 51-100% contamination with <1mm, friction coefficient 0.55.
Ruw UUWW 270030Z 15003MPS 6000 OVC006 02/01 Q1007 R24/190055 NOSIG

LIFR

2°C / 1°C

[Meer]
Wind 170º 4kt
Zicht 4100m
Weer Mist
Wolken Vertical Visibility of 0ft.
Luchtdruk 1008
Wijzigen No Significant change. Runway 24: Damp, 51-100% contamination with <1mm, friction coefficient 0.55.
Ruw UUWW 270000Z 17002MPS 4100 BR OVC004 02/01 Q1008 R24/190055 NOSIG

IFR

2°C / 1°C

[Meer]
Wind 180º 6kt
Zicht 7000m
Weer -
Wolken Overcast 500ft
Luchtdruk 1008
Wijzigen No Significant change. Runway 24: Damp, 51-100% contamination with <1mm, friction coefficient 0.55.
Ruw UUWW 262330Z 18003MPS 7000 OVC005 02/01 Q1008 R24/190055 NOSIG

IFR

2°C / 1°C

[Meer]
Wind 200º 8kt
Zicht 9000m
Weer -
Wolken Overcast 800ft
Luchtdruk 1008
Wijzigen No Significant change. Runway 24: Damp, 51-100% contamination with <1mm, friction coefficient 0.55.
Ruw UUWW 262300Z 20004MPS 9000 OVC008 02/01 Q1008 R24/190055 NOSIG

IFR

2°C / 0°C

[Meer]
Wind 200º 8kt
Zicht >10km
Weer -
Wolken Broken Clouds 900ft
Overcast 2600ft
Luchtdruk 1008
Wijzigen No Significant change. Runway 24: Damp, 51-100% contamination with <1mm, friction coefficient 0.55.
Ruw UUWW 262230Z 20004MPS 9999 BKN009 OVC026 02/00 Q1008 R24/190055 NOSIG

MVFR

2°C / 0°C

[Meer]
Wind 200º 8kt
Zicht >10km
Weer -
Wolken Broken Clouds 1200ft
Overcast 2600ft
Luchtdruk 1008
Wijzigen No Significant change. Runway 24: Damp, 51-100% contamination with <1mm, friction coefficient 0.55.
Ruw UUWW 262200Z 20004MPS 9999 BKN012 OVC026 02/M00 Q1008 R24/190055 NOSIG

MVFR

2°C / 0°C

[Meer]
Wind 200º 8kt
Zicht >10km
Weer -
Wolken Few Clouds 1500ft
Overcast 2800ft
Luchtdruk 1008
Wijzigen No Significant change. Runway 24: Damp, 51-100% contamination with <1mm, friction coefficient 0.55.
Ruw UUWW 262130Z 20004MPS 9999 FEW015 OVC028 02/M00 Q1008 R24/190055 NOSIG

MVFR

2°C / 0°C

[Meer]
Wind 210º 8kt
Zicht 9000m
Weer -
Wolken Few Clouds 1300ft
Overcast 2500ft
Luchtdruk 1007
Wijzigen No Significant change. Runway 24: Damp, 51-100% contamination with <1mm, friction coefficient 0.55.
Ruw UUWW 262100Z 21004MPS 9000 FEW013 OVC025 02/00 Q1007 R24/190055 NOSIG

MVFR

2°C / 0°C

[Meer]
Wind 200º 10kt
Zicht 9000m
Weer -
Wolken Broken Clouds 1300ft
Overcast 2500ft
Luchtdruk 1007
Wijzigen No Significant change. Runway 24: Damp, 51-100% contamination with <1mm, friction coefficient 0.55.
Ruw UUWW 262030Z 20005MPS 9000 BKN013 OVC025 02/M00 Q1007 R24/190055 NOSIG

MVFR

2°C / 0°C

[Meer]
Wind 200º 10kt
Zicht 9000m
Weer -
Wolken Broken Clouds 1300ft
Overcast 2600ft
Luchtdruk 1007
Wijzigen No Significant change. Runway 24: Damp, 51-100% contamination with <1mm, friction coefficient 0.55.
Ruw UUWW 262000Z 20005MPS 9000 BKN013 OVC026 02/M00 Q1007 R24/190055 NOSIG

MVFR

2°C / 0°C

[Meer]
Wind 200º 10kt
Zicht >10km
Weer -
Wolken Broken Clouds 1300ft
Overcast 3000ft
Luchtdruk 1007
Wijzigen No Significant change. Runway 24: Damp, 51-100% contamination with <1mm, friction coefficient 0.55.
Ruw UUWW 261930Z 20005MPS 9999 BKN013 OVC030 02/M00 Q1007 R24/190055 NOSIG

MVFR

2°C / 0°C

[Meer]
Wind 210º 12kt
Zicht >10km
Weer -
Wolken Broken Clouds 1400ft
Overcast 3800ft
Luchtdruk 1007
Wijzigen No Significant change. Runway 24: Damp, 51-100% contamination with <1mm, friction coefficient 0.55.
Ruw UUWW 261900Z 21006MPS 9999 BKN014 OVC038 02/M00 Q1007 R24/190055 NOSIG

MVFR

2°C / 0°C

[Meer]
Wind 210º 12kt Gust 21kt
Zicht >10km
Weer -
Wolken Broken Clouds 1400ft
Overcast 3600ft
Luchtdruk 1006
Wijzigen No Significant change. Runway 24: Damp, 51-100% contamination with <1mm, friction coefficient 0.55.
Ruw UUWW 261830Z 21006G11MPS 9999 BKN014 OVC036 02/M00 Q1006 R24/190055 NOSIG

MVFR

2°C / -1°C

[Meer]
Wind 210º 12kt
Zicht >10km
Weer -
Wolken Overcast 1300ft
Luchtdruk 1006
Wijzigen No Significant change. Runway 24: Damp, 51-100% contamination with <1mm, friction coefficient 0.55.
Ruw UUWW 261800Z 21006MPS 9999 OVC013 02/M01 Q1006 R24/190055 NOSIG

MVFR

2°C / 0°C

[Meer]
Wind 210º 12kt
Zicht >10km
Weer -
Wolken Overcast 1400ft
Luchtdruk 1006
Wijzigen No Significant change. Runway 24: Damp, 51-100% contamination with <1mm, friction coefficient 0.55.
Ruw UUWW 261730Z 21006MPS 9999 OVC014 02/M00 Q1006 R24/190055 NOSIG

MVFR

2°C / -1°C

[Meer]
Wind 210º 12kt
Zicht >10km
Weer -
Wolken Overcast 1500ft
Luchtdruk 1006
Wijzigen No Significant change. Runway 24: Damp, 51-100% contamination with <1mm, friction coefficient 0.55.
Ruw UUWW 261700Z 21006MPS 9999 OVC015 02/M01 Q1006 R24/190055 NOSIG

MVFR

2°C / -1°C

[Meer]
Wind 200º 12kt
Zicht >10km
Weer -
Wolken Overcast 1500ft
Luchtdruk 1006
Wijzigen No Significant change. Runway 24: Damp, 51-100% contamination with <1mm, friction coefficient 0.55.
Ruw UUWW 261630Z 20006MPS 9999 OVC015 02/M01 Q1006 R24/190055 NOSIG

MVFR

2°C / -1°C

[Meer]
Wind 200º 12kt
Zicht >10km
Weer -
Wolken Overcast 1500ft
Luchtdruk 1006
Wijzigen No Significant change. Runway 24: Damp, 51-100% contamination with <1mm, friction coefficient 0.55.
Ruw UUWW 261600Z 20006MPS 9999 OVC015 02/M01 Q1006 R24/190055 NOSIG

TAF voor 55.6°N 37.27°O (UUWW)

From till


Maximum Temperature 3ºC on . Minimum Temperature 1ºC on .
From till Wind 150º 10kt. Visibility 6000m. Overcast 700ft.
Temporarly from till Visibility 1500m. Light Rain Light Snow Mist . Broken Clouds 300ft.
Temporarly from till Wind 160º 16kt. Gust 29kt. Visibility 1500m. Showers Rain Showers Snow . Broken Clouds 300ft. Broken Clouds 1600ft.
Temporarly from till Visibility 1100m. Light Showers Rain Light Showers Snow Mist . Broken Clouds 400ft. Broken Clouds 1200ft.

Ruw: TAF UUWW 270158Z 2703/2803 15005MPS 6000 OVC007 TX03/2803Z TN01/2704Z TEMPO 2703/2707 1500 -RASN BR BKN003 TEMPO 2712/2722 16008G15MPS 1500 SHRASN BKN003 BKN016CB TEMPO 2722/2803 1100 -SHRASN BR BKN004 BKN012CB

Huidige satelliet- en regenbeelden voor 55.6°N 37.27°O

De locatiemarkering is geplaatst op 55.6°N 37.27°O. [Meer]

Het realtime satellietbeeld combineert zichtbaar licht overdag met infraroodstraling 's nachts. 's Nachts is het beeld niet donker, omdat infraroodstraling temperatuurverschillen kan waarnemen. Helaas zijn lage wolken en mist moeilijk te onderscheiden van grondtemperaturen en kunnen dus 's nachts bijna onzichtbaar zijn. Meteosat-satellietbeelden voor Europa worden elke 5 minuten in real time bijgewerkt. De beelden van GOES-16/GOES-17 (Noord- en Zuid-Amerika) en Himawari (Azië) worden om de 10 minuten bijgewerkt.

Copyright 2021 EUMETSAT / meteoblue. / Copyright 2021 meteoblue

Radar en neerslag nowcast voor 55.6°N 37.27°O

Motregen
Licht
Matig
Zwaar
Zeer zwaar
Hail

De locatiemarkering wordt geplaatst op 55.6°N 37.27°O. Deze animation toont de neerslag radar van het afgelopen uur, maar ook de 1h verwachting. Motregen of lichte sneeuwval kan onzichtbaar zijn voor de radar. De neerslagintensiteit wordt met kleuren gecodeerd, van lichtblauw tot oranje.